Estación de Petorca

Ultimos registro cada 15 minutos 47
Estación Fecha / Hora Temperatura Humedad Lluvia Velocidad Dirección Radiación Presion
47 Petorca 02-05-2026 11:30 25,6 32,5 0 0 197 643,1 982,5
46 Petorca 02-05-2026 11:15 24,9 34,3 0 0 213 623,1 983
45 Petorca 02-05-2026 11:00 24,1 36,7 0 0 187 595,6 983,1
44 Petorca 02-05-2026 10:45 22,6 40,4 0 0 180 565,6 983,2
43 Petorca 02-05-2026 10:30 21,4 42 0 0 188 535,6 0
42 Petorca 02-05-2026 10:15 20,7 45,3 0 0 44 500,6 983,8
41 Petorca 02-05-2026 10:00 19,6 49,6 0 0 236 463,1 984
40 Petorca 02-05-2026 09:45 19 50,1 0 0 166 425,6 984,1
39 Petorca 02-05-2026 09:30 18,4 52,5 0 0 336 384,4 983,6
38 Petorca 02-05-2026 09:15 17,8 55,1 0 0 60 339,4 984,3
37 Petorca 02-05-2026 09:00 16,6 59,7 0 0 73 294,4 984,5
36 Petorca 02-05-2026 08:45 15,3 67,8 0 0 83 249,4 984,5
35 Petorca 02-05-2026 08:30 11,2 78,5 0 0 22 201,9 984,3
34 Petorca 02-05-2026 08:15 6,9 89 0 0 29 16,9 984,2
33 Petorca 02-05-2026 08:00 6,7 88,7 0 0 41 13,1 984,3
32 Petorca 02-05-2026 07:45 6,7 88,5 0 0 268 10,6 983,9
31 Petorca 02-05-2026 07:30 6,8 87,7 0 0 24 5,6 983,9
30 Petorca 02-05-2026 07:15 6,6 88,7 0 0 7 1,9 983,9
29 Petorca 02-05-2026 07:00 6,8 87,9 0 0 41 0,6 983,9
28 Petorca 02-05-2026 06:45 6,6 89,2 0 0 31 0,6 983,8
27 Petorca 02-05-2026 06:30 6,4 87,2 0 0 7 0,6 983,9
26 Petorca 02-05-2026 06:15 7,2 85,6 0 0 7 0,6 983,9
25 Petorca 02-05-2026 06:00 8 85,3 0 0 34 0,6 984
24 Petorca 02-05-2026 05:45 7,8 85,7 0 0,5 32 0,6 984,1
23 Petorca 02-05-2026 05:30 7,2 89 0 0 39 0,6 984,1
22 Petorca 02-05-2026 05:15 7,4 88,2 0 0 37 0,6 984,4
21 Petorca 02-05-2026 05:00 7,5 86,9 0 0 282 0,6 984,3
20 Petorca 02-05-2026 04:45 8,5 82,8 0 0 18 0,6 984,4
19 Petorca 02-05-2026 04:30 8,5 85,4 0 0 31 0,6 984,6
18 Petorca 02-05-2026 04:15 7,1 87,6 0 0 22 0,6 984,6
17 Petorca 02-05-2026 04:00 7,7 87,4 0 0 10 0,6 984,7
16 Petorca 02-05-2026 03:45 8 86,5 0 0 358 0,6 984,7
15 Petorca 02-05-2026 03:30 8,5 85,8 0 0 34 0,6 984,8
14 Petorca 02-05-2026 03:15 7,9 89 0 0 37 0,6 984,9
13 Petorca 02-05-2026 03:00 7,7 89,9 0 0 18 0,6 985,1
12 Petorca 02-05-2026 02:45 7,6 87,9 0 0 38 0,6 985,1
11 Petorca 02-05-2026 02:30 8,1 88,1 0 0 24 0,6 985,4
10 Petorca 02-05-2026 02:15 8 88 0 0 20 0,6 985,4
9 Petorca 02-05-2026 02:00 8,3 87,3 0 0 14 0,6 985,6
8 Petorca 02-05-2026 01:45 8,5 86 0 0 25 0,6 985,9
7 Petorca 02-05-2026 01:30 9,1 85,8 0 0 14 0,6 985,9
6 Petorca 02-05-2026 01:15 9,4 85,5 0 0 15 0,6 986
5 Petorca 02-05-2026 01:00 8,9 87,1 0 0 31 0,6 986,4
4 Petorca 02-05-2026 00:45 8,7 87,8 0 0 31 0,6 986,4
3 Petorca 02-05-2026 00:30 8,6 88,3 0 0 31 0,6 986,4
2 Petorca 02-05-2026 00:15 8,3 88,4 0 0 1 0,6 986,6
1 Petorca 02-05-2026 00:00 8,2 88,5 0 0 22 0,6 986,7